Regional Weather Roundup
Issued by NWS

Home | Current Version | Previous Version | Graphics & Text | Print | Product List | Glossary On
Versions: 1 2 3 4 5 6 7 8 9 10 11 12 13 14 15 16 17 18 19 20 21 22 23 24 25 26 27 28 29 30 31 32 33 34 35 36 37 38 39 40 41 42 43 44 45 46 47 48 49 50
000
ASUS43 KMPX 201510
RWRMN
WEATHER ROUNDUP FOR MINNESOTA
NATIONAL WEATHER SERVICE TWIN CITIES/CHANHASSEN MN
1000 AM CDT WED AUG 20 2014


NOTE: "FAIR" INDICATES FEW OR NO CLOUDS BELOW 12,000 FEET WITH NO
SIGNIFICANT WEATHER AND/OR OBSTRUCTIONS TO VISIBILITY. N/A MEANS
CURRENT SKY AND/OR WEATHER CONDITIONS ARE NOT AVAILABLE.

MNZ060>063-068>070-201600-
   Twin Cities Metro

CITY           SKY/WX    TMP DP  RH WIND       PRES   REMARKS
TWIN CITIES    MOSUNNY   74  65  73 E8        29.85F
ST PAUL        SUNNY     73  65  75 VRB3      29.86F
CRYSTAL        SUNNY     74  63  68 E5        29.85F
BLAINE         PTSUNNY   73  66  78 NE9       29.86F
LAKEVILLE      MOSUNNY   66  66 100 SE5       29.86S
EDEN PRAIRIE   MOSUNNY   75  67  76 E6        29.84F
SOUTH ST PAUL  SUNNY     72  65  79 E5        29.86F
LAKE ELMO      FAIR      70  64  83 NE9       29.87F
$$
MNZ001>005-007-008-013>017-022>024-027-028-201600-
   Northwest Minnesota

CITY           SKY/WX    TMP DP  RH WIND       PRES   REMARKS
BEMIDJI        CLOUDY    66  63  88 S8        29.87S
HALLOCK        MOSUNNY   73  66  78 SE7       29.78S
ROSEAU         SUNNY     73  64  73 SE7       29.83F
WARROAD        SUNNY     72  66  83 SE3       29.84F
THIEF RVR FALL SUNNY     72  64  78 SE6       29.83R
CROOKSTON      SUNNY     73  66  78 S9        29.81S
FOSSTON        SUNNY     72  66  83 SE6       29.84S
DETROIT LAKES  MOSUNNY   68  64  88 SE9       29.85F
MOORHEAD       SUNNY     75  70  83 SE8       29.80S
PARK RAPIDS    CLOUDY    66  63  90 SE7       29.87S
MAHNOMEN       FAIR      71  65  81 SE8       29.83F
$$
MNZ006-009>011-018-025>026-201600-
   North Central Minnesota

CITY           SKY/WX    TMP DP  RH WIND       PRES   REMARKS
BAUDETTE       SUNNY     71  62  73 SE6       29.86S
FLAG ISLAND    SUNNY     70  63  78 SE6       29.84F
INTL FALLS     MOSUNNY   68  61  78 VRB3      29.89S
WASKISH        SUNNY     70  66  88 E5        29.86S
BIG FORK       SUNNY     68  63  83 E5        29.89S
LONGVILLE      MOSUNNY   64  63  94 SE8       29.89R
GRAND RAPIDS   MOSUNNY   63  61  94 E6        29.89F
CRANE LAKE     CLOUDY    61  61 100 CALM      29.92S
ORR            CLOUDY    63  61  94 CALM      29.89R
COOK           MOSUNNY   61  61 100 CALM      29.91R
WALKER         PTSUNNY   67  63  84 S8        29.88S
$$
MNZ012-019>021-037-201600-
   Northeast Minnesota

CITY           SKY/WX    TMP DP  RH WIND       PRES   REMARKS
DULUTH         PTSUNNY   66  60  81 N6        29.89S
ELY            CLOUDY    64  61  88 CALM      29.90S
HIBBING        CLOUDY    66  61  84 CALM      29.89F
EVELETH        CLOUDY    64  59  82 CALM      29.91S
DULUTH HARBOR  CLOUDY    64  61  88 CALM      29.89S
TWO HARBORS    CLOUDY    64  61  88 CALM      29.87S
SILVER BAY     SUNNY     63  63 100 N3        29.87S
GRAND MARAIS     N/A     65  61  87 CALM      29.87R
G MARAIS ARPRT CLOUDY    61  55  82 CALM      29.91R
$$
MNZ029>031-032-039>041-046>048-054>057-064-201600-
   West Central Minnesota

CITY           SKY/WX    TMP DP  RH WIND       PRES   REMARKS
FERGUS FALLS   SUNNY     73  61  64 SE9       29.80F
WHEATON        MOSUNNY   72  66  83 SE10      29.81S
MORRIS         SUNNY     75  66  73 E10       29.80F
ALEXANDRIA     SUNNY     72  65  78 E12       29.85F
ELBOW LAKE     FAIR      74  65  74 SE8       29.82S
WADENA         PTSUNNY   66  64  94 SE7       29.86S
GLENWOOD       SUNNY     72  66  83 SE8       29.85S
APPLETON       MOSUNNY   75  64  69 SE8       29.79F
BENSON         MOSUNNY   75  64  69 SE7       29.81F
ORTONVILLE     MOSUNNY   73  64  73 E7        29.78F
MADISON        MOSUNNY   75  68  78 E8        29.78F
WILLMAR        FAIR      75  64  69 E7        29.83F
$$
MNZ033>034-036-042>043-049>051-058-059-201600-
   Central Minnesota

CITY           SKY/WX    TMP DP  RH WIND       PRES   REMARKS
ST CLOUD       MOSUNNY   72  64  76 VRB5      29.86F
SAUK CENTRE    FAIR      70  65  85 E8        29.85F
PAYNESVILLE    MOSUNNY   70  64  81 E7        29.85F
AITKIN         PTSUNNY   66  61  82 S3        29.89R
PINE RIVER     PTSUNNY   66  64  94 SE7       29.92S
BRAINERD       SUNNY     68  62  81 S5        29.89F
STAPLES        CLOUDY    64  64 100 S5        29.87F
LONG PRAIRIE   PTSUNNY   64  63  94 E6        29.87F
LITTLE FALLS   CLOUDY    68  63  83 E6        29.87F
LITCHFIELD     PTSUNNY   73  70  88 E8        29.84F
BUFFALO        MOSUNNY   73  64  75 NE3       29.87S
MAPLE LAKE     MOSUNNY   72  68  87 E6        29.87S
$$
MNZ037-044-045-052-053-201600-
   East Central Minnesota

CITY           SKY/WX    TMP DP  RH WIND       PRES   REMARKS
PRINCETON      MOSUNNY   70  64  83 E5        29.88F
MORA           CLOUDY    63  63 100 SE3       29.92F
CAMBRIDGE      MOSUNNY   72  59  64 NE3       29.87F
RUSH CITY      CLOUDY    62  61  97 CALM      29.91F
MOOSE LAKE     CLOUDY    63  61  94 CALM      29.89R
HINCKLEY       CLOUDY    63  61  94 S5        29.91R
CLOQUET        CLOUDY    63  63 100 CALM      29.90R
MCGREGOR       MOSUNNY   64  63  94 SE3       29.90R
$$
MNZ071>073-080-081-089-090-097-098-201600-
   Southwest Minnesota

CITY           SKY/WX    TMP DP  RH WIND       PRES   REMARKS
MONTEVIDEO     PTSUNNY   73  68  83 SE12      29.80F
GRANITE FALLS  PTSUNNY   72  66  82 E8        29.80F
CANBY          PTSUNNY   72  66  82 SE5       29.80R
MARSHALL       CLOUDY    73  63  68 E10       29.77F
REDWOOD FALLS  CLOUDY    73  66  78 E9        29.80F
OLIVIA         PTSUNNY   73  66  78 SE9       29.82S
PIPESTONE      CLOUDY    70  64  83 S8        29.81R
WINDOM         CLOUDY    70  64  83 E9        29.78F
WORTHINGTON    CLOUDY    66  10  11 S9        29.83S
JACKSON        CLOUDY    68  63  83 E9        29.82F
TRACY          CLOUDY    73  66  80 E3        29.79F
SLAYTON        CLOUDY    68  66  92 CALM      29.81R
$$
MNZ065>067-074>077-082>085-091>093-201600-
   South Central Minnesota

CITY           SKY/WX    TMP DP  RH WIND       PRES   REMARKS
MANKATO        PTSUNNY   72  64  78 SE6       29.85F
NEW ULM        PTSUNNY   73  68  83 SE6       29.83S
ST JAMES       CLOUDY    73  66  78 SE5       29.84S
FAIRMONT       CLOUDY    70  61  73 SE5       29.84S
GLENCOE        PTSUNNY   74  65  73 E6        29.84F
FARIBAULT      PTSUNNY   77  64  65 S3        29.87R
OWATONNA       PTSUNNY   73  66  78 CALM      29.87F
WASECA         CLOUDY    72  64  78 CALM      29.88F
ALBERT LEA     CLOUDY    73  66  78 SE5       29.87F
$$
MNZ078>079-086>088-094>096-201600-
   Southeast Minnesota

CITY           SKY/WX    TMP DP  RH WIND       PRES   REMARKS
ROCHESTER      PTSUNNY   72  66  81 VRB5      29.90R
RED WING       CLOUDY    70  64  83 SE3       29.87R
STANTON        MOSUNNY   73  66  77 E5        29.85S
DODGE CENTER   PTSUNNY   72  68  88 SE3       29.89S
WINONA         CLOUDY    66  64  94 CALM      29.89R
AUSTIN         CLOUDY    72  66  83 CALM      29.88F
PRESTON        PTSUNNY   71  69  93 CALM      29.90S
$$
ABBREVIATIONS USED IN REMARKS
   TC - TEMPERATURES IN CELSIUS
  WCI - WIND CHILL INDEX
   HX - HEAT INDEX
  VSB - VISIBILITY
$$



USA.gov is the U.S. government's official web portal to all federal, state and local government web resources and services.